[[{"header":{"parameterUnit":"m.s-1","parameterCategory":1,"la1":30.2991,"la2":30.254,"lo1":-89.0895,"lo2":-89.0444,"dy":0.0017,"dx":0.0017,"nx":28,"ny":28,"refTime":"2025-01-25T03:00:00:Z","depth":0,"parameterNumber":2,"parameterNumberName":"U-component_of_WINDS"},"data":[0,0,0,0,0,0,0,0,0,0,0,0,0,0,0,0,0,0,0,0,0,0,0,0,0,0,0,0,0,0,0,0,0,0,0,0,0,0,0,0,0,0,0,0,0,0,0,0,0,0,0,0,0,0,0,0,0,0,-3.1512,-3.1513,0,-3.1627,-3.1629,-3.163,-3.1638,-3.1637,-3.1636,-3.1635,-3.175,-3.1754,-3.1758,0,0,0,0,0,0,0,0,0,0,0,0,0,-3.1297,-3.1301,-3.1512,-3.1513,-3.1515,-3.1627,-3.1629,-3.163,-3.1639,-3.1637,-3.1636,-3.1634,-3.1749,-3.1754,-3.1759,0,0,0,0,0,0,0,0,0,0,0,0,0,-3.1399,-3.1302,-3.1512,-3.1533,-3.1536,-3.1627,-3.1629,-3.1631,-3.1639,-3.1637,-3.1635,-3.1633,-3.1747,-3.1753,-3.176,-3.1837,0,0,-3.1779,-3.1782,0,0,0,0,0,0,0,0,-3.1393,-3.1407,-3.1528,-3.1531,-3.1535,-3.1617,-3.1595,-3.17,-3.1639,-3.16,-3.1635,-3.1632,-3.1707,-3.1717,-3.1742,-3.1842,-3.1847,-3.178,-3.1783,-3.1786,-3.1788,0,0,0,0,0,0,0,-3.1386,-3.1402,-3.1557,-3.153,-3.1534,-3.1535,-3.1548,-3.1615,-3.1662,-3.1603,-3.1604,-3.1618,-3.1708,-3.1736,-3.1745,-3.1849,-3.1779,-3.1785,-3.1789,-3.1791,-3.2016,-3.2019,0,0,0,0,0,0,-3.1375,-3.1396,-3.1554,-3.1561,-3.1458,-3.1541,-3.1555,-3.1592,-3.1662,-3.1671,-3.1619,-3.1618,-3.1726,-3.1738,-3.1749,-3.1843,-3.1786,-3.1792,-3.1796,-3.2014,-3.2017,-3.2019,0,0,0,0,0,0,-3.1371,-3.1389,-3.1549,-3.1479,-3.1499,-3.1547,-3.1589,-3.1595,-3.1623,-3.1674,-3.1682,-3.1639,-3.1725,-3.174,-3.1815,-3.1847,-3.1795,-3.1801,-3.2012,-3.2015,-3.2018,-3.2032,0,0,0,0,0,0,-3.1364,-3.1388,-3.1418,-3.1479,-3.1503,-3.1614,-3.1591,-3.1599,-3.1634,-3.1633,-3.1695,-3.1703,-3.1725,-3.1805,-3.1821,-3.1855,-3.1806,-3.2009,-3.2013,-3.2017,-3.2028,-3.2035,-3.204,0,0,0,0,0,-3.1357,-3.1417,-3.1419,-3.1438,-3.1542,-3.1616,-3.1629,-3.1654,-3.1637,-3.1667,-3.17,-3.1701,-3.1841,-3.1813,-3.1831,-3.1867,-3.2007,-3.2012,-3.2017,-3.2026,-3.2034,-3.204,0,0,0,0,0,0,-3.1357,-3.1425,-3.1429,-3.1511,-3.1557,-3.1617,-3.1656,-3.1661,-3.1713,-3.171,-3.1738,-3.1751,-3.1825,-3.1854,-3.1821,-3.1945,-3.1922,-3.1931,-3.1923,-3.1931,-3.1937,-3.1927,-3.1811,0,0,0,0,0,-3.1367,-3.1422,-3.1478,-3.1545,-3.1568,-3.1608,-3.1641,-3.1656,-3.1705,-3.1725,-3.1763,-3.1809,-3.1864,-3.1899,-3.1953,-3.2033,-3.2046,-3.2067,-3.2073,-3.2078,-3.2084,-3.2127,-3.2137,-3.2035,-3.2035,-3.2035,0,0,-3.1387,-3.1431,-3.1464,-3.1546,-3.1584,-3.1639,-3.1624,-3.1684,-3.1724,-3.1733,-3.1806,-3.1836,-3.189,-3.1967,-3.2003,-3.1993,-3.2115,-3.2084,-3.2087,-3.2091,-3.2133,-3.2143,-3.2151,-3.2038,-3.2038,-3.2037,0,0,-3.1452,-3.1492,-3.1551,-3.1589,-3.1647,-3.1673,-3.1688,-3.1747,-3.1767,-3.1841,-3.1848,-3.1897,-3.1991,-3.2028,-3.206,-3.214,-3.2142,-3.2156,-3.2186,-3.2228,-3.2236,-3.2244,-3.227,-3.228,-3.2163,-3.2163,-3.2163,0,-3.1469,-3.1553,-3.158,-3.1639,-3.1675,-3.1687,-3.1746,-3.1782,-3.1854,-3.1878,-3.1866,-3.1984,-3.2021,-3.2107,-3.2126,-3.2152,-3.2168,-3.2148,-3.2233,-3.2241,-3.2248,-3.2274,-3.2284,-3.2164,-3.2164,-3.2164,-3.2164,0,-3.1571,-3.163,-3.1671,-3.174,-3.178,-3.1839,-3.1874,-3.1912,-3.1924,-3.1951,-3.2025,-3.2071,-3.2132,-3.2155,-3.2167,-3.2242,-3.2234,-3.2228,-3.2205,-3.2258,-3.2283,-3.2293,-3.2166,-3.2166,-3.2165,-3.2165,0,0,-3.1638,-3.1722,-3.1737,-3.1768,-3.1833,-3.1878,-3.1937,-3.1999,-3.203,-3.2079,-3.2128,-3.2208,-3.2202,-3.2238,-3.2255,-3.2292,-3.235,-3.2281,-3.2282,-3.229,-3.2434,-3.2437,-3.2448,-3.2353,-3.2355,-3.2356,-3.2429,0,-3.1708,-3.1815,-3.1841,-3.1931,-3.1984,-3.1997,-3.2049,-3.2093,-3.2121,-3.2169,-3.2199,-3.2254,-3.2244,-3.2265,-3.2303,-3.2335,-3.2379,-3.233,-3.2397,-3.2399,-3.2381,-3.2461,-3.2464,-3.253,-3.2439,-3.244,-3.2442,0,-3.1804,-3.1856,-3.1952,-3.201,-3.2033,-3.2079,-3.2137,-3.2184,-3.2235,-3.2252,-3.2292,-3.2305,-3.2366,-3.2342,-3.2426,-3.2392,-3.2421,-3.2441,-3.2445,-3.245,-3.2422,-3.2466,-3.2552,-3.2561,-3.2457,-3.2456,-3.2455,0,-3.1841,-3.1935,-3.2004,-3.2031,-3.21,-3.2132,-3.2162,-3.2212,-3.2247,-3.2297,-3.232,-3.2377,-3.2408,-3.2451,-3.2479,-3.2459,-3.256,-3.2539,-3.2574,-3.2573,-3.2593,-3.2591,-3.2682,-3.2615,-3.2615,-3.2615,-3.2615,0,-3.1916,-3.1973,-3.2022,-3.2064,-3.2128,-3.2158,-3.2221,-3.2251,-3.2295,-3.2343,-3.2358,-3.2402,-3.2437,-3.2485,-3.2507,-3.2572,-3.2587,-3.2601,-3.2606,-3.2599,-3.2596,-3.2616,-3.2612,-3.2618,-3.2617,-3.2616,-3.2616,0,-3.1966,-3.2001,-3.2077,-3.2137,-3.2153,-3.2198,-3.2249,-3.229,-3.2318,-3.2378,-3.2394,-3.2437,-3.2496,-3.2528,-3.2601,-3.2616,-3.2688,-3.2691,-3.267,-3.2672,-3.2705,-3.2701,-3.2811,-3.2826,-3.275,-3.2751,-3.2752,0,-3.2011,-3.2055,-3.212,-3.2153,-3.2184,-3.2238,-3.2274,-3.2305,-3.2342,-3.2403,-3.2437,-3.2496,-3.2545,-3.2637,-3.2674,-3.273,-3.2733,-3.2768,-3.2742,-3.2733,-3.2732,-3.2728,-3.2732,-3.2772,-3.2773,-3.2773,-3.2774,0,-3.2085,-3.21,-3.2152,-3.221,-3.2253,-3.23,-3.2346,-3.2373,-3.2411,-3.2452,-3.2512,-3.255,-3.2624,-3.2682,-3.2741,-3.2771,-3.2778,-3.2782,-3.2793,-3.2785,-3.277,-3.2777,-3.2681,-3.2779,-3.2779,-3.2778,-3.2778,-3.2778,-3.2133,-3.2173,-3.2224,-3.2281,-3.232,-3.2363,-3.2404,-3.2438,-3.2489,-3.2552,-3.2568,-3.263,-3.268,-3.2759,-3.2791,-3.284,-3.2833,-3.2849,-3.2853,-3.2856,-3.2856,-3.2765,-3.2851,-3.2851,-3.2851,-3.2851,-3.2851,0,-3.2206,-3.224,-3.2293,-3.2357,-3.2402,-3.2407,-3.2458,-3.2495,-3.255,-3.2596,-3.2644,-3.2713,-3.2769,-3.2811,-3.2869,-3.29,-3.2904,-3.2913,-3.291,-3.2917,-3.286,-3.2844,-3.2909,-3.2909,-3.2909,-3.2909,-3.2909,-3.2909,-3.2249,-3.2316,-3.2338,-3.2424,-3.2458,-3.252,-3.2549,-3.2588,-3.2625,-3.2701,-3.2748,-3.2776,-3.282,-3.2881,-3.2932,-3.2943,-3.2963,-3.2971,-3.2982,-3.2927,-3.2921,-3.2915,-3.29,-3.2976,-3.2976,-3.3035,-3.3035,-3.3036]},{"header":{"parameterUnit":"m.s-1","parameterCategory":1,"la1":30.2991,"la2":30.254,"lo1":-89.0895,"lo2":-89.0444,"dy":0.0017,"dx":0.0017,"nx":28,"ny":28,"refTime":"2025-01-25T03:00:00:Z","depth":0,"parameterNumber":3,"parameterNumberName":"V-component_of_WINDS"},"data":[0,0,0,0,0,0,0,0,0,0,0,0,0,0,0,0,0,0,0,0,0,0,0,0,0,0,0,0,0,0,0,0,0,0,0,0,0,0,0,0,0,0,0,0,0,0,0,0,0,0,0,0,0,0,0,0,0,0,2.6192,2.6193,0,2.6333,2.6334,2.6336,2.6372,2.6371,2.637,2.6369,2.6512,2.6516,2.6521,0,0,0,0,0,0,0,0,0,0,0,0,0,2.5953,2.5957,2.6191,2.6193,2.6195,2.6332,2.6334,2.6336,2.6372,2.6371,2.637,2.6369,2.651,2.6516,2.6521,0,0,0,0,0,0,0,0,0,0,0,0,0,2.6071,2.5958,2.6191,2.6229,2.6234,2.6332,2.6334,2.6337,2.6372,2.6371,2.6369,2.6368,2.6508,2.6515,2.6522,2.6591,0,0,2.6543,2.6546,0,0,0,0,0,0,0,0,2.6065,2.608,2.6222,2.6227,2.6232,2.6333,2.6302,2.6422,2.6372,2.632,2.6369,2.6368,2.6453,2.6465,2.6494,2.6598,2.6604,2.6544,2.6548,2.6551,2.6553,0,0,0,0,0,0,0,2.6056,2.6074,2.6247,2.6224,2.623,2.6239,2.6255,2.6325,2.6392,2.6324,2.6327,2.6343,2.6456,2.6487,2.6498,2.6606,2.6543,2.655,2.6554,2.6557,2.6777,2.6778,0,0,0,0,0,0,2.6042,2.6067,2.6243,2.6251,2.6144,2.6245,2.6262,2.6302,2.6391,2.6404,2.6344,2.6345,2.6476,2.6489,2.6503,2.6592,2.6551,2.6557,2.6561,2.6775,2.6777,2.6779,0,0,0,0,0,0,2.6036,2.6057,2.6237,2.616,2.6184,2.625,2.6295,2.6306,2.6337,2.6407,2.6419,2.6364,2.6475,2.6493,2.657,2.6597,2.656,2.6567,2.6773,2.6776,2.6778,2.6769,0,0,0,0,0,0,2.6029,2.6055,2.6082,2.6161,2.6188,2.6302,2.6297,2.6309,2.6349,2.6351,2.6428,2.644,2.6476,2.6559,2.6577,2.6606,2.6572,2.6771,2.6774,2.6777,2.6767,2.6771,2.6774,0,0,0,0,0,2.6021,2.6072,2.6083,2.6104,2.6223,2.6303,2.6319,2.6359,2.6351,2.6379,2.6424,2.6438,2.6591,2.6567,2.6587,2.6618,2.6769,2.6773,2.6777,2.6765,2.677,2.6774,0,0,0,0,0,0,2.5994,2.6083,2.6096,2.6175,2.6231,2.6309,2.6345,2.6362,2.6422,2.6421,2.6468,2.6485,2.6559,2.6596,2.6568,2.6692,2.668,2.6688,2.6665,2.667,2.6673,2.6663,2.6578,0,0,0,0,0,2.5997,2.6055,2.613,2.6193,2.622,2.6278,2.6314,2.6341,2.6401,2.6425,2.6475,2.6533,2.6595,2.6634,2.6694,2.6772,2.6791,2.6804,2.6808,2.681,2.6817,2.6863,2.6871,2.6791,2.6791,2.6791,0,0,2.6004,2.6061,2.6094,2.6189,2.6236,2.6295,2.6298,2.636,2.6405,2.6434,2.6511,2.655,2.6617,2.6696,2.6733,2.6729,2.6843,2.6815,2.6816,2.6822,2.6868,2.6875,2.6882,2.6794,2.6793,2.6793,0,0,2.6049,2.6096,2.6155,2.6202,2.6274,2.6312,2.6326,2.6402,2.643,2.6507,2.6532,2.6585,2.6689,2.6737,2.6775,2.684,2.6855,2.6858,2.6877,2.6921,2.6928,2.6933,2.6958,2.6967,2.6864,2.6864,2.6864,0,2.6049,2.6139,2.6182,2.6245,2.6286,2.6317,2.6377,2.6421,2.6508,2.6536,2.653,2.6664,2.6711,2.6802,2.6819,2.6847,2.6866,2.685,2.6923,2.693,2.6936,2.696,2.6969,2.6864,2.6864,2.6864,2.6864,0,2.6137,2.62,2.6238,2.6323,2.6369,2.643,2.6482,2.6524,2.6547,2.6585,2.6665,2.6723,2.6797,2.682,2.6842,2.6916,2.6911,2.6914,2.6904,2.6943,2.6966,2.6976,2.6864,2.6864,2.6864,2.6864,0,0,2.6167,2.6277,2.6291,2.6331,2.6413,2.6462,2.6525,2.6598,2.6634,2.6693,2.6747,2.6836,2.684,2.6883,2.6911,2.695,2.7,2.6948,2.6951,2.6958,2.7087,2.7085,2.7095,2.7011,2.7013,2.7014,2.7082,0,2.6223,2.6337,2.6378,2.6472,2.6532,2.6563,2.6617,2.6674,2.6712,2.6768,2.6811,2.6874,2.6873,2.6899,2.6939,2.6986,2.7027,2.6981,2.7063,2.7065,2.7046,2.7108,2.7106,2.7167,2.7091,2.7093,2.7094,0,2.6303,2.6366,2.6465,2.6543,2.6569,2.6618,2.669,2.6742,2.6808,2.6833,2.6882,2.6908,2.6976,2.6961,2.7055,2.7023,2.7059,2.7087,2.709,2.71,2.7083,2.7121,2.7187,2.7197,2.7109,2.7107,2.7106,0,2.6318,2.6426,2.6501,2.6534,2.6625,2.6659,2.6699,2.6763,2.6805,2.6867,2.6896,2.6964,2.7002,2.7055,2.71,2.7084,2.7191,2.7179,2.7215,2.7214,2.7236,2.7235,2.7311,2.7257,2.7257,2.7256,2.7256,0,2.6377,2.6437,2.6509,2.6555,2.6624,2.6672,2.6739,2.678,2.6837,2.6892,2.6922,2.6973,2.7028,2.7086,2.7121,2.7195,2.7211,2.7235,2.7243,2.7233,2.723,2.7258,2.7255,2.7259,2.7258,2.7258,2.7257,0,2.6405,2.6456,2.6539,2.662,2.6641,2.6689,2.6758,2.6804,2.6844,2.6914,2.6933,2.6996,2.7066,2.7116,2.7205,2.7229,2.7309,2.7317,2.7288,2.7293,2.7326,2.7323,2.7424,2.7441,2.7374,2.7374,2.7375,0,2.644,2.6487,2.6574,2.6613,2.6653,2.6716,2.676,2.6808,2.6853,2.6932,2.6969,2.7042,2.7103,2.7214,2.7268,2.7337,2.7348,2.7378,2.7358,2.7347,2.735,2.7348,2.7354,2.7381,2.7382,2.7382,2.7383,0,2.6497,2.652,2.6583,2.6655,2.6707,2.6765,2.6824,2.6855,2.6914,2.6962,2.7036,2.7083,2.7176,2.7248,2.7323,2.7364,2.7384,2.7389,2.7401,2.7391,2.7373,2.7386,2.7298,2.7386,2.7386,2.7386,2.7385,2.7385,2.6531,2.6576,2.6644,2.6714,2.6763,2.6818,2.6867,2.6914,2.6976,2.7056,2.7081,2.7157,2.7223,2.7326,2.7368,2.7429,2.7427,2.7444,2.7449,2.7453,2.7454,2.7363,2.7443,2.7442,2.7442,2.7442,2.7442,0,2.6592,2.6638,2.6701,2.6784,2.6838,2.6853,2.692,2.6964,2.7032,2.7092,2.7152,2.7237,2.7308,2.7368,2.7441,2.7478,2.7489,2.7496,2.7495,2.7504,2.745,2.7433,2.7486,2.7486,2.7486,2.7486,2.7486,2.7486,2.663,2.6707,2.6739,2.6842,2.6887,2.6963,2.7,2.7052,2.71,2.7194,2.7254,2.7293,2.7354,2.7432,2.7498,2.7514,2.7541,2.7546,2.7564,2.7513,2.7508,2.7503,2.7487,2.7551,2.7551,2.7613,2.7614,2.7614]}]]